This is the latest recevied weather packets stored in our database for station/object SV9TNF-56. If no packets are shown the sender has not sent any weather packets the latest 10 day(s).
| Time | Temp. | Humidity | Pressure | Rain* | Wind** | Luminosity | Snow |
|---|---|---|---|---|---|---|---|
| 1787942789 | 26.11° C | 74% | 1019 hPa | 0 mm | 2.68 m/s, 277° | - | - |
| 1787942489 | 26.11° C | 74% | 1019 hPa | 0 mm | 4.47 m/s, 294° | - | - |
| 1787942189 | 26.11° C | 74% | 1019 hPa | 0 mm | 3.58 m/s, 258° | - | - |
| 1787941895 | 26.11° C | 73% | 1019 hPa | 0 mm | 8.05 m/s, 256° | - | - |
| 1787941589 | 26.11° C | 73% | 1019 hPa | 0 mm | 4.47 m/s, 267° | - | - |
| 1787941289 | 26.11° C | 73% | 1018.6 hPa | 0 mm | 11.18 m/s, 277° | - | - |
| 1787940989 | 26.11° C | 73% | 1018.6 hPa | 0 mm | 12.07 m/s, 270° | - | - |
| 1787940689 | 26.11° C | 73% | 1018.6 hPa | 0 mm | 6.26 m/s, 294° | - | - |
| 1787940389 | 26.11° C | 72% | 1018.6 hPa | 0 mm | 7.15 m/s, 271° | - | - |
| 1787940089 | 26.67° C | 71% | 1018.6 hPa | 0 mm | 4.92 m/s, 294° | - | - |
| 1787939789 | 26.67° C | 70% | 1018.6 hPa | 0 mm | 4.92 m/s, 286° | - | - |
| 1787939488 | 26.67° C | 69% | 1018.3 hPa | 0 mm | 4.47 m/s, 240° | - | - |
| 1787939188 | 26.67° C | 68% | 1018.3 hPa | 0 mm | 8.05 m/s, 266° | - | - |
| 1787938888 | 26.67° C | 67% | 1018.3 hPa | 0 mm | 8.05 m/s, 281° | - | - |
| 1787938588 | 26.67° C | 66% | 1018.6 hPa | 0 mm | 8.05 m/s, 302° | - | - |
| 1787938288 | 26.67° C | 64% | 1018.3 hPa | 0 mm | 6.26 m/s, 318° | - | - |
| 1787937988 | 27.22° C | 60% | 1018.3 hPa | 0 mm | 4.92 m/s, 317° | - | - |
| 1787937688 | 26.67° C | 58% | 1018 hPa | 0 mm | 14.31 m/s, 234° | - | - |
| 1787937388 | 26.67° C | 62% | 1018 hPa | 0 mm | 4.92 m/s, 128° | - | - |
| 1787937087 | 26.67° C | 66% | 1018 hPa | 0 mm | 12.07 m/s, 116° | - | - |
| 1787936787 | 26.11° C | 65% | 1018 hPa | 0 mm | 7.6 m/s, 204° | - | - |
| 1787936487 | 26.67° C | 66% | 1018 hPa | 0 mm | 12.07 m/s, 77° | - | - |
| 1787936187 | 26.67° C | 63% | 1018 hPa | 0 mm | 6.26 m/s, 190° | - | - |
| 1787935887 | 26.67° C | 64% | 1018 hPa | 0 mm | 10.28 m/s, 93° | - | - |
| 1787935587 | 26.67° C | 64% | 1018 hPa | 0 mm | 12.07 m/s, 71° | - | - |
* Rain latest hour (hover to see other rain measurements)
** Current wind speed in m/s (hover to see current wind gust speed)